Location: Stanford
(52.2833°N, 2.4333°W)
Time: 01:36:40
(UTC+00:00)

COSMOS 2455 - Pass Details

Date: 22 January 2021
Orbit: 901 x 908 km, 67.1° (Epoch: 28 February)

Event Time Altitude Azimuth Distance (km) Brightness Sun altitude
Rises 19:35:07 0° 243° (WSW) 3,529 6.9 -26.5°
Reaches altitude 10° 19:37:46 10° 250° (WSW) 2,591 6.1 -26.9°
Maximum altitude 19:43:28 43° 322° (NW) 1,259 3.8 -27.8°
Enters shadow 19:45:52 30° 11° (N) 1,582 4.0 -28.1°
